COSMOS 249 DEB, 3912

Orbit data source: Space-Track

COSMOS 249 DEB, 3912 is space debris in LEO originally from a launch on Sun, 20 Oct 1968 UTC launched from the Tyuratam Missile And Space Complex (TTMTR). Debris objects in space refer to the collection of defunct objects orbiting the Earth. Examples of debris include non-operational satellites, rocket bodies, and fragments generated from explosions, collisions, or faulty payload assembly.

Loading next visibility...
Identifier
3912, 1968-091BQ
Orbit
LEO
Country
Flag of CISCIS
Related business
Manufacturer
Unknown
Mission
Spacecraft
Bus & Motor
Unknown
Mass
Unknown
Launch date (UTC)
1968-10-20 (57 years ago)
Launch vehicle
Unknown
Launch site
Tyuratam Missile And Space Complex (TTMTR)
Object type
Payload
Rocket body
Debris
Shape & HBR
Unknown shape, 0.1 m
Radar Cross Section
Small (<0.1 m²)

Expand to show TLE details & history
Last TLE update: 2 days ago

TLE from 2 days ago
0 COSMOS 249 DEB
1 03912U 68091BQ  26034.54497406  .00000718  00000-0  10343-2 0  9992
2 03912  62.2435 232.8560 0791276  44.3801 321.7887 12.74137909628293
Epoch: 2026-02-03T13:04Z
TLE epoch observation values (Epoch: 2026-02-03T13:04:45.758Z)
Latitude
-0.00004°
Longitude
-97.05905°
Altitude
905.664 km
Speed
7.617 km/s
True Right ascension
15h 31m 25s
True Declination
0° 00' 00"
Sunlit
Object was in daylight at epoch
Visualization orbit readout
Latitude
Unknown
Longitude
Unknown
Altitude
Unknown
Speed
Unknown
Apparent Right ascension
Unknown
Apparent Declination
Unknown
Sunlit
N/A
Visualization observer readout
Local Sidereal Time
05:54:31
Azimuth
Unknown
Elevation
Unknown
Doppler factor
Unknown
Orbital elements
Apogee altitude
1,976.759 km
Perigee altitude
751.505 km
Semi-major axis
7,742.269 km
Eccentricity
0.07913
Inclination
62.2435°
RAAN
232.856°
Arg. of periapsis
44.3801°
True anomaly
315.72057°
Mean anomaly
321.7887°
Eccentric anomaly
318.80257°
Mean motion
3.18596 °/min
Orbital period
113 mins
BSTAR
0.0010343
Loading maneuver chart data...
Computing Atmospheric mass density...

Documentation

Showing up to 5 results
|